Content
SEND FEEDBACK

Daily
Averages
Monthly
Summary
Brazil

TERESINA, PIAUI


Home > South America > Brazil > Piaui
Elevation: 328 feet     Latitude: 05 03S     Longitude: 042 48W

WEATHER
 
SELECT A DAY
Number of Records: 166,115;   Date Range: 6/30/96 - 9/30/14
 
SHARE

PRINT THIS DATA

[ ← Previous Day ]
WEATHER ALMANAC - JANUARY 23, 2013
[ Next Day → ]
[ °C ]   °F
Weather ElementAverageHighLow
Temperature85.6 °F95 °F (4:00 pm)78.8 °F (2:00 am)
Dewpoint76.1 °F79 °F (9:00 pm)73 °F (3:00 pm)
Humidity73.8 %94 % (7:00 am)44 % (3:00 pm)
Barometer29.84 in29.93 in (9:00 am)29.74 in (6:00 pm)
Wind Speed1.3 mph4.6 mph (8:00 am)
Weather ElementAverage
Visibility7.4 mi
Wind DirectionESE (123.2 °)

Weather ElementTotal
Precipitation---
Cooling Degree Days21.9 (Base 65)
Growing Degree Days36.9 (Base 50)
Averaged from 27 records on January 23, 2013
WEATHER CONDITIONS BREAKOUT
WIND DIRECTION BREAKOUT
WEATHER BY HOUR - JANUARY 23, 2013
[ °C ]   °F
Local TimeTemperatureDewpointHumidityBarometerVisibilityWind DirectionWind SpeedGust SpeedPrecipitationEventsConditions
1:00 AM80.6 °F75.2 °F84 %29.86 in6.2 miCalmPartly Cloudy
2:00 AM78.8 °F75.2 °F89 %29.83 in6.2 miCalmPartly Cloudy
3:00 AM79.0 °F76.0 °F86 %29.83 in12.0 miCalmPartly Cloudy
3:00 AM78.8 °F75.2 °F89 %29.83 in6.2 miCalmScattered Clouds
4:00 AM78.8 °F75.2 °F89 %29.83 in6.2 miCalmMostly Cloudy
5:00 AM78.8 °F75.2 °F89 %29.83 inCalmClear
6:00 AM78.8 °F75.2 °F89 %29.86 inCalmClear
7:00 AM80.6 °F78.8 °F94 %29.89 inWNW (300°)3.5 mphClear
8:00 AM82.4 °F77.0 °F84 %29.92 in6.2 miWNW (290°)4.6 mphMostly Cloudy
9:00 AM84.0 °F77.0 °F75 %29.93 in12.0 miNNW (340°)3.5 mphMostly Cloudy
9:00 AM84.2 °F77.0 °F79 %29.92 in6.2 miNNW (340°)3.5 mphMostly Cloudy
10:00 AM86.0 °F77.0 °F74 %29.92 in6.2 miENE (60°)2.3 mphMostly Cloudy
11:00 AM89.6 °F77.0 °F66 %29.92 in6.2 miCalmMostly Cloudy
12:00 PM87.8 °F77.0 °F70 %29.89 in6.2 miNorth (10°)4.6 mphMostly Cloudy
1:00 PM91.4 °F75.2 °F59 %29.86 in6.2 miNNW (340°)1.2 mphScattered Clouds
2:00 PM91.4 °F75.2 °F59 %29.80 in6.2 miNE (50°)2.3 mphScattered Clouds
3:00 PM92.0 °F73.0 °F44 %29.79 in12.0 miSSE (160°)1.2 mphPartly Cloudy
3:00 PM93.2 °F73.4 °F52 %29.80 in6.2 miSSE (160°)1.2 mphScattered Clouds
4:00 PM95.0 °F73.4 °F49 %29.77 in6.2 miEast (80°)2.3 mphPartly Cloudy
5:00 PM93.2 °F75.2 °F56 %29.77 in6.2 miSouth (180°)1.2 mphPartly Cloudy
6:00 PM91.4 °F73.4 °F55 %29.74 in6.2 miCalmPartly Cloudy
7:00 PM89.6 °F75.2 °F62 %29.77 inSouth (190°)1.2 mphClear
8:00 PM87.8 °F77.0 °F70 %29.80 inWNW (290°)1.2 mphClear
9:00 PM85.0 °F79.0 °F77 %29.81 in12.0 miCalm
9:00 PM84.2 °F78.8 °F84 %29.80 inCalmClear
10:00 PM84.2 °F78.8 °F84 %29.83 inCalmClear
11:00 PM84.2 °F78.8 °F84 %29.83 inWNW (290°)1.2 mphClear
Hourly data recorded from SBTE, located miles away from Teresina, Piaui







STORIES FROM OUR PARTNERS